Le nostre stazioni meteo in Italia

Pubblicità
Il mio iltempo24.it
Termoli, Italia (16232): Temperatura & dewpoint: 13.08.2018 10:00:00 - 19.08.2018 10:00:00 (CEST)Termoli, Italia (16232): velocità del vento: 13.08.2018 10:00:00 - 19.08.2018 10:00:00 (CEST)Termoli, Italia (16232): direzione del vento: 13.08.2018 10:00:00 - 19.08.2018 10:00:00 (CEST)Termoli, Italia (16232): reduced air pressure: 13.08.2018 10:00:00 - 19.08.2018 10:00:00 (CEST)Termoli, Italia (16232): visibility: 13.08.2018 10:00:00 - 19.08.2018 10:00:00 (CEST)Termoli, Italia (16232): ore di luce: 13.08.2018 10:00:00 - 19.08.2018 10:00:00 (CEST)
Data & Tempo tt [°C] td [°C] ff [km/h] ff [kn] dd ppp [hPa] vv [km] sd [min]
19.08.2018 10:00:00 - - - - - - - -
19.08.2018 09:00:00 - - - - - - - -
19.08.2018 08:00:00 25,2 17,2 16 9 O 1015,3 20 24
19.08.2018 07:00:00 - - - - - - - -
19.08.2018 06:00:00 - - - - - - - -
19.08.2018 05:00:00 - - - - - - - -
19.08.2018 04:00:00 - - - - - - - -
19.08.2018 03:00:00 - - - - - - - -
19.08.2018 02:00:00 - - - - - - - -
19.08.2018 01:00:00 - - - - - - - -
19.08.2018 00:00:00 - - - - - - - -
18.08.2018 23:00:00 - - - - - - - -
18.08.2018 22:00:00 - - - - - - - -
18.08.2018 21:00:00 - - - - - - - -
18.08.2018 20:00:00 27,8 20,1 9 5 NO 1015,5 10 0
18.08.2018 19:00:00 - - - - - - - -
18.08.2018 18:00:00 - - - - - - - -
18.08.2018 17:00:00 29,8 19,8 16 9 NNO 1014,8 12 60
18.08.2018 16:00:00 - - - - - - - -
18.08.2018 15:00:00 - - - - - - - -
18.08.2018 14:00:00 28,2 22,0 16 9 N 1015,6 20 6
18.08.2018 13:00:00 - - - - - - - -
18.08.2018 12:00:00 - - - - - - - -
18.08.2018 11:00:00 28,2 20,2 11 6 NNO 1016,8 20 60
18.08.2018 10:00:00 - - - - - - - -
18.08.2018 09:00:00 - - - - - - - -
18.08.2018 08:00:00 24,4 18,6 16 9 O 1015,1 25 24
18.08.2018 07:00:00 - - - - - - - -
18.08.2018 06:00:00 - - - - - - - -
18.08.2018 05:00:00 - - - - - - - -
18.08.2018 04:00:00 - - - - - - - -
18.08.2018 03:00:00 - - - - - - - -
18.08.2018 02:00:00 - - - - - - - -
18.08.2018 01:00:00 - - - - - - - -
18.08.2018 00:00:00 - - - - - - - -
17.08.2018 23:00:00 - - - - - - - -
17.08.2018 22:00:00 - - - - - - - -
17.08.2018 21:00:00 - - - - - - - -
17.08.2018 20:00:00 28,0 17,5 5 3 NO 1013,9 30 0
17.08.2018 19:00:00 - - - - - - - -
17.08.2018 18:00:00 - - - - - - - -
17.08.2018 17:00:00 28,2 15,5 13 7 N 1013,2 35 60
17.08.2018 16:00:00 - - - - - - - -
17.08.2018 15:00:00 - - - - - - - -
17.08.2018 14:00:00 29,0 15,5 9 5 NNE 1014,2 30 60
17.08.2018 13:00:00 - - - - - - - -
17.08.2018 12:00:00 - - - - - - - -
17.08.2018 11:00:00 27,8 17,0 11 6 NNO 1014,2 30 60
17.08.2018 10:00:00 - - - - - - - -
17.08.2018 09:00:00 - - - - - - - -
17.08.2018 08:00:00 24,8 15,2 13 7 OSO 1014,1 25 24
17.08.2018 07:00:00 - - - - - - - -
17.08.2018 06:00:00 - - - - - - - -
17.08.2018 05:00:00 - - - - - - - -
17.08.2018 04:00:00 - - - - - - - -
17.08.2018 03:00:00 - - - - - - - -
17.08.2018 02:00:00 - - - - - - - -
17.08.2018 01:00:00 - - - - - - - -
17.08.2018 00:00:00 - - - - - - - -
16.08.2018 23:00:00 - - - - - - - -
16.08.2018 22:00:00 - - - - - - - -
16.08.2018 21:00:00 - - - - - - - -
16.08.2018 20:00:00 26,2 17,6 21 11 NO 1013,1 25 0
16.08.2018 19:00:00 - - - - - - - -
16.08.2018 18:00:00 - - - - - - - -
16.08.2018 17:00:00 24,8 19,2 16 9 O 1013,3 20 0
16.08.2018 16:00:00 - - - - - - - -
16.08.2018 15:00:00 - - - - - - - -
16.08.2018 14:00:00 21,8 16,1 29 16 OSO 1014,1 18 0
16.08.2018 13:00:00 - - - - - - - -
16.08.2018 12:00:00 - - - - - - - -
16.08.2018 11:00:00 24,2 16,7 26 14 OSO 1013,0 15 0
16.08.2018 10:00:00 - - - - - - - -
16.08.2018 09:00:00 - - - - - - - -
16.08.2018 08:00:00 25,8 20,6 42 23 NO 1012,0 20 0
16.08.2018 07:00:00 - - - - - - - -
16.08.2018 06:00:00 - - - - - - - -
16.08.2018 05:00:00 - - - - - - - -
16.08.2018 04:00:00 - - - - - - - -
16.08.2018 03:00:00 - - - - - - - -
16.08.2018 02:00:00 - - - - - - - -
16.08.2018 01:00:00 - - - - - - - -
16.08.2018 00:00:00 - - - - - - - -
15.08.2018 23:00:00 - - - - - - - -
15.08.2018 22:00:00 - - - - - - - -
15.08.2018 21:00:00 - - - - - - - -
15.08.2018 20:00:00 26,0 19,2 37 20 NO 1011,4 20 0
15.08.2018 19:00:00 - - - - - - - -
15.08.2018 18:00:00 - - - - - - - -
15.08.2018 17:00:00 25,4 18,8 35 19 NO 1012,1 20 12
15.08.2018 16:00:00 - - - - - - - -
15.08.2018 15:00:00 - - - - - - - -
15.08.2018 14:00:00 26,0 18,7 28 15 NO 1012,4 20 36
15.08.2018 13:00:00 - - - - - - - -
15.08.2018 12:00:00 - - - - - - - -
15.08.2018 11:00:00 24,4 18,6 29 16 NNO 1012,3 15 18
15.08.2018 10:00:00 - - - - - - - -
15.08.2018 09:00:00 - - - - - - - -
15.08.2018 08:00:00 22,4 16,9 21 11 O 1011,8 20 -
15.08.2018 07:00:00 - - - - - - - -
15.08.2018 06:00:00 - - - - - - - -
15.08.2018 05:00:00 - - - - - - - -
15.08.2018 04:00:00 - - - - - - - -
15.08.2018 03:00:00 - - - - - - - -
15.08.2018 02:00:00 - - - - - - - -
15.08.2018 01:00:00 - - - - - - - -
15.08.2018 00:00:00 - - - - - - - -
14.08.2018 23:00:00 - - - - - - - -
14.08.2018 22:00:00 - - - - - - - -
14.08.2018 21:00:00 - - - - - - - -
14.08.2018 20:00:00 22,2 15,3 22 12 S 1013,2 4,0 0
14.08.2018 19:00:00 - - - - - - - -
14.08.2018 18:00:00 - - - - - - - -
14.08.2018 17:00:00 25,0 19,6 57 31 NNO 1011,9 4,0 0
14.08.2018 16:00:00 - - - - - - - -
14.08.2018 15:00:00 - - - - - - - -
14.08.2018 14:00:00 27,0 22,2 41 22 NNE 1011,1 10 30
14.08.2018 13:00:00 - - - - - - - -
14.08.2018 12:00:00 - - - - - - - -
14.08.2018 11:00:00 29,4 17,9 11 6 N 1011,0 25 60
14.08.2018 10:00:00 - - - - - - - -
14.08.2018 09:00:00 - - - - - - - -
14.08.2018 08:00:00 27,6 18,0 9 5 SO 1011,2 25 -
14.08.2018 07:00:00 - - - - - - - -
14.08.2018 06:00:00 - - - - - - - -
14.08.2018 05:00:00 - - - - - - - -
14.08.2018 04:00:00 - - - - - - - -
14.08.2018 03:00:00 - - - - - - - -
14.08.2018 02:00:00 - - - - - - - -
14.08.2018 01:00:00 - - - - - - - -
14.08.2018 00:00:00 - - - - - - - -
13.08.2018 23:00:00 - - - - - - - -
13.08.2018 22:00:00 - - - - - - - -
13.08.2018 21:00:00 - - - - - - - -
13.08.2018 20:00:00 29,4 23,6 9 5 SE 1010,2 15 24
13.08.2018 19:00:00 - - - - - - - -
13.08.2018 18:00:00 - - - - - - - -
13.08.2018 17:00:00 33,2 24,1 15 8 E 1010,4 15 60
13.08.2018 16:00:00 - - - - - - - -
13.08.2018 15:00:00 - - - - - - - -
13.08.2018 14:00:00 31,8 26,1 11 6 NE 1012,2 15 60
13.08.2018 13:00:00 - - - - - - - -
13.08.2018 12:00:00 - - - - - - - -
13.08.2018 11:00:00 29,4 23,6 5 3 NNO 1013,5 20 60
13.08.2018 10:00:00 - - - - - - - -

tt = Temperatura
td = dewpoint
ff = velocità del vento
dd = direzione del vento
ppp = reduced air pressure
vv = visibility
sd = ore di luce

Stazioni seguenti

WeatherPro
AMSI
MeteoEarth